Location: Chapet
(48.9667°N, 1.9333°E)
Time: 01:37:06
(UTC+00:00)

Daily predictions for brighter satellites

Satellite Brightness Start Highest point End
(mag) Time Altitude Azimuth Time Altitude Azimuth Time Altitude Azimuth
BREEZE-M DEB (TANK) 4.4 00:01:04 10° WNW 00:05:11 78° SSW 00:20:50 10° ESE
Cosmos 1378 Rocket 4.5 00:04:16 24° SW 00:06:26 41° WNW 00:10:37 10° N
Cosmos 923 Rocket 4.5 00:02:04 10° NNW 00:07:17 58° ENE 00:11:00 19° SE
Cosmos 1674 Rocket 4.2 00:05:41 26° SW 00:07:42 46° WNW 00:11:54 10° N
SL-12 R/B(2) 4.3 00:02:26 20° SSW 00:08:34 79° SE 00:18:26 10° NE
Okean 2 Rocket 4.2 00:10:20 10° NNW 00:14:19 32° W 00:16:03 24° SW
Cosmos 1898 Rocket 3.8 00:13:33 30° SSE 00:15:51 53° ESE 00:20:54 10° NNE
ALOS 2 4.2 00:17:02 19° WSW 00:18:33 23° W 00:22:02 10° NW
GEOS 3 Rocket 4.1 00:15:21 10° NE 00:20:14 42° ESE 00:22:15 29° S
Cosmos 2074 Rocket 4.4 00:21:27 23° SW 00:25:15 56° WNW 00:31:24 10° N
In-Cosmos 22 Rocket 4.4 00:27:54 27° S 00:31:08 69° E 00:36:57 10° NNE
Cosmos 1328 4.5 00:29:41 29° SW 00:31:11 43° WNW 00:34:55 10° N
CZ-2D R/B 4.4 00:28:47 10° NE 00:31:31 14° E 00:34:12 10° ESE
Cosmos 1606 3.3 00:30:15 10° N 00:33:43 47° ENE 00:35:21 26° SE
Helios 1A Rocket 3.7 00:32:17 20° SE 00:34:33 43° ENE 00:38:10 10° N
Cosmos 1869 3.6 00:34:09 10° N 00:37:48 53° ENE 00:39:31 27° SE
SL-16 R/B 2.7 00:35:14 10° NW 00:40:36 43° WSW 00:43:10 27° SSW
Cosmos 2341 Rocket 4.2 00:36:54 24° S 00:40:43 67° E 00:46:55 10° NNE
CENTAUR R/B 2.8 00:35:45 15° WSW 00:40:46 67° NW 00:48:04 10° NE
CZ-2C R/B 4.5 00:36:26 10° ESE 00:40:53 28° ENE 00:45:24 10° N
USA 234 4.4 00:35:10 10° ENE 00:41:19 45° N 00:47:27 10° WNW
Cosmos 2237 Rocket 4.2 00:41:38 10° WNW 00:44:08 13° W 00:46:00 11° WSW
Cosmos 1461 2.6 00:43:01 37° SSW 00:44:27 72° SE 00:48:19 10° NE
Cosmos 1603 4.5 00:40:13 10° NNW 00:45:51 52° NE 00:51:26 10° SE
Cosmos 1680 Rocket 3.4 00:42:51 10° NNW 00:48:05 90° ENE 00:51:38 21° SSE
Cosmos 2228 3.7 00:44:35 10° N 00:48:47 48° ENE 00:51:38 19° SE
Cosmos 292 Rocket 4.1 00:48:11 25° SW 00:50:51 61° WNW 00:55:39 10° NNE
CRYOSAT 2 4.4 00:46:31 10° N 00:51:27 82° E 00:54:08 27° S
Cosmos 1943 3.2 00:45:51 10° NNW 00:51:31 83° ENE 00:56:23 14° SSE
Cosmos 2227 Rocket 3.4 00:46:33 11° WSW 00:51:33 37° NW 00:56:48 10° NNE
Cosmos 2082 3.7 00:48:25 25° SSW 00:51:49 81° WNW 00:57:29 10° NNE
Cosmos 2112 Rocket 4.0 00:46:53 10° NNW 00:52:07 83° ENE 00:55:56 19° SSE
Aureole 1 Rocket 3.5 00:53:40 25° SW 00:55:40 51° WNW 01:00:24 10° NNE
Resurs 1-4 Rocket 3.8 00:54:53 10° NE 00:59:11 25° E 01:03:21 11° SSE
USA 238 DEB 4.2 00:59:38 22° S 01:03:10 42° ESE 01:09:23 10° NE
USA 238 4.2 00:59:40 22° S 01:03:13 41° ESE 01:09:25 10° NE
BREEZE-M DEB (TANK) 2.7 00:59:23 10° WNW 01:04:11 33° SW 01:04:15 33° SW
H-2A R/B 3.6 01:05:28 10° N 01:08:56 25° WNW 01:11:28 15° WSW
BlueWalker 3 3.0 01:05:31 10° WNW 01:09:09 46° N 01:12:46 10° E
Cosmos 1818 4.0 01:04:20 10° NW 01:09:32 44° WSW 01:12:28 23° S
Cosmos 2218 Rocket 4.0 01:07:06 23° S 01:11:15 86° E 01:17:27 10° N
Cosmos 2297 Rocket 4.5 01:08:00 10° W 01:11:56 19° NW 01:15:54 10° N
Cosmos 1544 Rocket 3.5 01:07:50 10° NNW 01:12:17 74° W 01:14:43 26° S
Cosmos 2366 rocket 4.0 01:08:29 23° S 01:12:39 89° W 01:18:55 10° N
Cosmos 372 Rocket 4.4 01:15:43 21° SW 01:19:05 57° WNW 01:24:15 10° NNE
Cosmos 2219 4.2 01:14:58 13° WSW 01:19:37 38° NW 01:24:52 10° NNE
Cosmos 494 Rocket 4.2 01:19:24 10° NNW 01:24:41 75° ENE 01:29:56 10° SSE
Cosmos 921 Rocket 3.2 01:23:29 10° NNW 01:27:42 66° ENE 01:31:45 11° SSE
Cosmos 1975 Rocket 4.2 01:25:49 19° WSW 01:28:14 33° WNW 01:32:14 10° N
Cosmos 2227 4.2 01:26:28 22° SSW 01:30:19 83° ESE 01:36:07 10° NNE
IDEFIX/ARIANE 42P 2.9 01:28:39 10° NNE 01:33:52 61° E 01:37:48 17° S
Cosmos 1844 4.3 01:32:48 18° S 01:36:56 51° ESE 01:42:32 10° NE
Cosmos 2263 Rocket 3.2 01:33:26 13° WSW 01:38:05 38° NW 01:43:17 10° NNE
NOSS 3-2 (A) 4.2 01:33:20 10° WSW 01:38:34 45° NW 01:44:50 10° NE
MSX 4.2 01:33:25 10° NNE 01:39:06 60° ESE 01:43:47 15° S
SL-8 Rocket 4.4 01:37:14 19° SW 01:41:33 51° WNW 01:47:36 10° N
NOSS 3-2 (C) 3.5 01:42:25 16° SW 01:46:48 69° NW 01:53:14 10° NE
Cosmos 1606 Rocket 3.7 01:43:04 10° N 01:47:31 73° ENE 01:51:46 11° SSE
Cosmos 1937 Rocket 4.4 01:44:19 15° WSW 01:48:18 40° WNW 01:53:14 10° NNE
Meteor 2-13 Rocket 4.4 01:43:34 10° NNW 01:49:40 73° W 01:55:05 13° S
CZ-2C R/B 3.5 01:48:35 10° NNE 01:53:52 56° E 01:58:24 12° S
Genesis I 4.2 01:51:18 10° NNW 01:54:48 44° NE 01:58:17 10° ESE
Cosmos 1844 Rocket 2.7 01:51:37 18° SSW 01:55:50 78° ESE 02:01:26 10° NNE
Cosmos 1536 Rocket 3.9 01:54:56 19° SSW 01:57:54 56° WNW 02:02:16 10° N
GEOS 3 Rocket 4.3 01:53:20 10° NNE 01:58:19 48° NW 02:03:12 10° WSW
SL-16 R/B 3.2 01:52:20 10° SE 01:58:25 58° ENE 02:04:31 10° N
Cosmos 1867 3.6 01:55:11 17° SW 01:59:24 88° NW 02:04:55 10° NE
Cosmos 2239 Rocket 4.5 01:55:59 14° S 02:01:22 85° E 02:07:33 10° N
Cosmos 1726 Rocket 3.7 01:56:57 10° N 02:01:24 76° E 02:05:48 10° SSE
MOZ.5/SAFIR/RUBIN 5/SL-8 4.4 01:59:16 18° SSW 02:02:15 37° W 02:06:34 10° NNW
Cosmos 1727 Rocket 4.2 01:57:41 10° NNW 02:03:55 60° W 02:09:38 12° S
H-2A R/B 3.3 02:02:57 10° NNE 02:06:58 77° WNW 02:10:00 17° SSW
Helios 1A Rocket 4.5 02:07:37 15° WSW 02:09:04 17° W 02:11:40 10° NW
Cosmos 1238 Rocket 4.1 02:08:20 10° N 02:11:18 30° ENE 02:14:00 10° SE
CZ-2D R/B 2.1 02:06:56 10° NNE 02:12:18 89° ESE 02:17:02 13° SSW
ALOS 3.4 02:10:03 10° NNE 02:14:23 38° E 02:18:40 10° SSE
ADEOS II 2.3 02:10:51 10° NNE 02:16:05 68° ESE 02:21:19 10° S
Cosmos 1437 Rocket 3.4 02:16:19 16° SW 02:18:59 40° WNW 02:22:33 10° N
CZ-2C R/B 2.9 02:15:43 10° S 02:20:50 53° W 02:26:10 10° NNW
Alouette 2 Rocket 3.7 02:19:20 10° S 02:23:30 60° E 02:27:02 10° NNE
USA 234 4.2 02:17:23 10° E 02:23:41 52° NNE 02:29:59 10° WNW
Cosmos 1607 4.2 02:18:58 10° NW 02:25:05 48° WSW 02:31:04 10° S
AQUA 4.1 02:20:26 10° NNE 02:25:09 65° ESE 02:29:50 10° S
ASTEX 1 3.3 02:22:05 10° S 02:26:57 83° W 02:31:51 10° N
FENGYUN 3A 3.7 02:22:57 10° NNE 02:28:22 83° ESE 02:33:46 10° SSW
ATLAS 5 CENTAUR R/B 2.8 02:27:11 10° S 02:29:48 22° ESE 02:32:35 10° ENE
Cosmos 1812 2.4 02:26:48 10° NNW 02:30:22 78° W 02:33:55 10° S
CENTAUR R/B 4.5 02:27:09 10° WNW 02:32:51 30° NNW 02:39:39 10° NE
Resurs 1-4 Rocket 2.5 02:34:09 10° N 02:39:17 54° WNW 02:44:25 10° SW
NPP 4.3 02:35:20 10° N 02:40:25 43° WNW 02:45:28 10° SW
Timation 2 Rocket 4.1 02:37:22 10° SSW 02:43:58 83° ESE 02:50:18 10° NNE
Cosmos 2058 2.9 02:40:32 10° S 02:44:35 88° E 02:48:42 10° N
BlueWalker 3 1.8 02:43:44 10° WNW 02:47:28 68° SSW 02:51:11 10° SE
Cosmos 1892 Rocket 3.8 02:43:34 10° SSW 02:47:55 57° WNW 02:52:19 10° N
SAR-Lupe-4 4.1 02:44:58 10° NNE 02:48:30 56° ESE 02:51:59 10° S
Meteor 2-19 Rocket 4.5 02:42:53 10° NNW 02:49:04 77° W 02:55:13 10° S
Cosmos 2058 Rocket 3.1 02:45:37 10° NNW 02:50:01 65° W 02:54:21 10° S
USA 238 DEB 4.1 02:47:45 10° WSW 02:53:57 54° NW 03:00:44 10° NE
USA 238 4.1 02:47:47 10° WSW 02:53:59 54° NW 03:00:47 10° NE
ATLAS CENTAUR R/B 4.3 02:51:00 10° NNW 02:53:59 21° NE 02:57:04 10° E
Envisat 3.8 02:54:05 10° NNE 02:59:04 52° E 03:03:59 10° S
NOSS 2-2 (C) 3.4 02:57:01 10° SSW 03:00:08 47° SE 03:03:10 10° NE
Cosmos 1544 2.1 02:58:26 10° SSW 03:01:01 72° W 03:03:38 10° N
Cosmos 1605 Rocket 4.0 02:57:22 10° S 03:03:33 87° W 03:09:42 10° N
Iridium 4 Rocket 3.4 03:01:52 10° N 03:06:21 63° W 03:11:14 10° S
Cosmos 1833 Rocket 2.8 03:01:19 10° NNW 03:07:00 84° ENE 03:12:40 10° SSE
